EST,Max TemperatureF,Mean TemperatureF,Min TemperatureF,Max Dew PointF,MeanDew PointF,Min DewpointF,Max Humidity, Mean Humidity, Min Humidity, Max Sea Level PressureIn, Mean Sea Level PressureIn, Min Sea Level PressureIn, Max VisibilityMiles, Mean VisibilityMiles, Min VisibilityMiles, Max Wind SpeedMPH, Mean Wind SpeedMPH, Max Gust SpeedMPH,PrecipitationIn, CloudCover, Events, WindDirDegrees
2013-1-1,24,10,-3,24,2,-9,100,78,69,29.79,29.64,29.50,,,,9,5,24,0.40,,,244
2013-1-2,2,-6,-14,-9,-11,-18,82,72,59,30.07,29.90,29.79,,,,9,6,24,0.40,,,246
2013-1-3,6,-2,-9,-4,-10,-15,82,76,67,30.13,30.05,29.92,,,,5,4,14,0.42,,,-1
2013-1-4,26,11,-4,22,12,-8,91,84,78,29.90,29.69,29.56,,,,12,3,21,0.48,,,216
2013-1-5,26,4,-15,11,-3,-20,89,78,63,30.26,29.99,29.55,,,,10,3,24,0.82,,,262
2013-1-6,19,4,-10,17,5,-15,92,86,81,30.25,30.08,29.96,,,,6,1,15,0.33,,,-1
2013-1-7,10,-4,-16,4,-7,-22,89,78,56,30.40,30.32,30.09,,,,5,1,,0.37,,,-1
2013-1-8,30,14,0,26,17,-3,90,84,79,30.29,30.19,30.12,,,,10,6,18,0.65,,,186
2013-1-9,33,18,4,27,17,2,91,82,70,30.38,30.11,29.72,,,,13,4,23,1.05,,,167
2013-1-10,34,24,13,31,22,12,93,79,63,30.51,30.16,29.73,,,,12,6,23,0.88,,,253
2013-1-11,28,14,-1,19,10,-4,92,74,57,30.58,30.43,30.21,,,,9,1,16,0.02,,,90
2013-1-12,36,31,26,34,29,21,94,87,76,30.21,30.12,30.04,,,,10,7,20,0.01,,,159
2013-1-13,47,40,33,42,40,36,88,83,79,30.07,29.97,29.84,,,,12,4,16,0.00,,,160
2013-1-14,49,37,25,44,26,15,85,67,60,30.19,29.90,29.70,,,,13,6,34,0.01,,,207
2013-1-15,27,20,12,16,9,1,90,68,37,30.31,30.26,30.21,,,,6,1,15,0.04,,,-1
2013-1-16,25,19,13,22,17,9,91,83,68,30.22,30.00,29.70,,,,10,3,17,0.06,,,170
2013-1-17,29,11,-9,25,6,-15,89,69,44,30.19,29.88,29.63,,,,14,8,23,0.01,,,202
2013-1-18,4,-9,-21,-9,-16,-26,82,64,42,30.31,30.27,30.18,,,,9,2,21,0.05,,,225
2013-1-19,21,10,0,21,8,-8,100,81,67,30.27,30.05,29.92,,,,13,4,18,0.04,,,178
2013-1-20,35,18,1,28,11,-6,100,80,71,29.88,29.55,29.28,,,,17,8,43,0.58,,,185
2013-1-21,3,-4,-12,-7,-12,-17,82,70,55,30.03,29.94,29.73,,,,12,6,25,0.00,,,229
2013-1-22,4,-12,-29,-7,-19,-36,82,71,49,30.01,29.95,29.91,,,,6,1,13,0.09,,,-1
2013-1-23,-8,-13,-18,-15,-23,-26,78,66,52,30.02,29.98,29.93,,,,9,6,22,0.04,,,230
2013-1-24,-2,-8,-13,-15,-18,-21,70,64,53,30.07,29.95,29.88,,,,10,7,30,0.01,,,240
2013-1-25,7,0,-7,-7,-10,-15,75,68,54,30.19,30.13,30.08,,,,10,7,26,0.01,,,240
2013-1-26,9,-4,-17,-3,-9,-22,83,72,61,30.12,30.08,29.91,,,,6,2,16,0.03,,,-1
2013-1-27,15,6,-6,1,-4,-11,82,70,52,30.41,30.29,30.13,,,,8,4,22,0.03,,,243
2013-1-28,23,3,-15,10,-6,-20,89,74,44,30.44,30.30,30.12,,,,9,0,,0.05,,,200
2013-1-29,30,13,-2,15,9,-5,87,70,47,30.25,30.16,30.06,,,,6,1,15,0.03,,,-1
2013-1-30,44,34,25,28,22,17,99,83,70,30.04,29.60,29.30,,,,25,11,39,0.10,,,166
2013-1-31,51,31,10,39,18,-1,96,77,61,29.26,28.97,28.65,,,,18,9,41,0.71,,,206